User: anonymous   Login
Location: Gerlach
(40.6516°N, 119.3568°W)
Time: 23:37:42
(UTC-08:00)
Language:

RS-15 - Orbit

View from above orbital plane
View from above orbital plane
View from above satellite
View from above satellite

Ground track
Ground track

The orbit data is extracted from the following two-line orbital elements,

1 23439U 94085A   23332.78778986 -.00000033  00000-0  28237-3 0  9992
2 23439  64.8203   9.4766 0157055 181.0897 178.9705 11.27575604190886
Epoch (UTC): 28 November 2023 18:54:25
Eccentricity: 0.0157055
inclination: 64.8203°
perigee height: 1890 km
apogee height: 2154 km
right ascension of ascending node: 9.4766°
argument of perigee: 181.0897°
revolutions per day: 11.27575604
mean anomaly at epoch: 178.9705°
orbit number at epoch: 19088

The dashed part of the orbit path shows where the satellite is in the earth's shadow,  

DLR